TimeCET,TemperatureF,Dew PointF,Humidity,Sea Level PressureIn,VisibilityMPH,Wind Direction,Wind SpeedMPH,Gust SpeedMPH,PrecipitationIn,Events,Conditions,WindDirDegrees,DateUTC
12:00 AM,35.6,32.0,87,30.21,6.2,West,16.1,-,N/A,,Overcast,280,2013-11-28 23:00:00
12:30 AM,35.6,32.0,87,30.21,6.2,West,13.8,-,N/A,,Overcast,280,2013-11-28 23:30:00
1:00 AM,35.6,30.2,81,30.21,6.2,WNW,12.7,-,N/A,,Overcast,300,2013-11-29 00:00:00
1:30 AM,35.6,30.2,81,30.21,6.2,WNW,11.5,-,N/A,,Overcast,300,2013-11-29 00:30:00
2:00 AM,35.6,30.2,81,30.21,6.2,WNW,13.8,-,N/A,,Overcast,290,2013-11-29 01:00:00
2:30 AM,35.6,30.2,81,30.21,6.2,WNW,12.7,-,N/A,,Mostly Cloudy,300,2013-11-29 01:30:00
3:00 AM,35.6,30.2,81,30.18,6.2,WNW,17.3,-,N/A,,Overcast,290,2013-11-29 02:00:00
3:30 AM,37.4,30.2,75,30.21,-9999.0,WNW,18.4,-,N/A,,Clear,300,2013-11-29 02:30:00
4:00 AM,37.4,30.2,75,30.21,-9999.0,WNW,17.3,-,N/A,,Clear,290,2013-11-29 03:00:00
4:30 AM,37.4,30.2,75,30.21,-9999.0,NW,16.1,-,N/A,,Clear,310,2013-11-29 03:30:00
5:00 AM,37.4,30.2,75,30.18,-9999.0,WNW,13.8,-,N/A,,Clear,290,2013-11-29 04:00:00
5:30 AM,37.4,30.2,75,30.18,-9999.0,WNW,21.9,-,N/A,,Clear,290,2013-11-29 04:30:00
6:00 AM,35.6,32.0,87,30.18,-9999.0,WNW,16.1,-,N/A,,Clear,300,2013-11-29 05:00:00
6:30 AM,35.6,32.0,87,30.21,-9999.0,WNW,16.1,-,N/A,,Clear,300,2013-11-29 05:30:00
7:00 AM,35.6,32.0,87,30.21,-9999.0,West,13.8,-,N/A,,Clear,280,2013-11-29 06:00:00
7:30 AM,35.6,32.0,87,30.21,-9999.0,WNW,19.6,-,N/A,,Clear,290,2013-11-29 06:30:00
8:00 AM,37.4,30.2,75,30.18,-9999.0,WNW,16.1,-,N/A,,Clear,300,2013-11-29 07:00:00
8:30 AM,37.4,32.0,81,30.21,-9999.0,WNW,16.1,-,N/A,,Clear,300,2013-11-29 07:30:00
9:00 AM,37.4,32.0,81,30.21,-9999.0,WNW,16.1,-,N/A,,Clear,290,2013-11-29 08:00:00
9:30 AM,39.2,33.8,81,30.21,-9999.0,WNW,18.4,-,N/A,,Clear,290,2013-11-29 08:30:00
10:00 AM,41.0,33.8,76,30.21,-9999.0,WNW,17.3,-,N/A,,Clear,290,2013-11-29 09:00:00
10:30 AM,41.0,33.8,76,30.21,-9999.0,WNW,19.6,-,N/A,,Clear,290,2013-11-29 09:30:00
11:00 AM,42.8,33.8,70,30.21,6.2,West,17.3,-,N/A,,Partly Cloudy,280,2013-11-29 10:00:00
11:30 AM,42.8,33.8,70,30.18,6.2,WNW,18.4,-,N/A,,Partly Cloudy,290,2013-11-29 10:30:00
12:00 PM,44.6,33.8,66,30.18,6.2,WNW,17.3,-,N/A,,Partly Cloudy,300,2013-11-29 11:00:00
12:30 PM,44.6,33.8,66,30.18,6.2,West,15.0,-,N/A,,Partly Cloudy,280,2013-11-29 11:30:00
1:00 PM,44.6,33.8,66,30.15,6.2,WNW,11.5,-,N/A,,Scattered Clouds,290,2013-11-29 12:00:00
1:30 PM,44.6,32.0,61,30.15,6.2,WNW,11.5,-,N/A,,Scattered Clouds,300,2013-11-29 12:30:00
2:00 PM,42.8,32.0,66,30.15,6.2,West,15.0,-,N/A,,Scattered Clouds,270,2013-11-29 13:00:00
2:30 PM,42.8,33.8,70,30.15,6.2,West,13.8,-,N/A,,Scattered Clouds,280,2013-11-29 13:30:00
3:00 PM,41.0,33.8,76,30.15,6.2,West,9.2,-,N/A,,Scattered Clouds,270,2013-11-29 14:00:00
3:30 PM,41.0,32.0,70,30.15,6.2,West,10.4,-,N/A,,Scattered Clouds,270,2013-11-29 14:30:00
4:00 PM,39.2,32.0,75,30.15,6.2,West,9.2,-,N/A,,Scattered Clouds,270,2013-11-29 15:00:00
4:30 PM,39.2,32.0,75,30.12,6.2,West,8.1,-,N/A,,Scattered Clouds,270,2013-11-29 15:30:00
5:00 PM,37.4,32.0,81,30.12,-9999.0,West,8.1,-,N/A,,Clear,260,2013-11-29 16:00:00
5:30 PM,35.6,30.2,81,30.12,-9999.0,West,9.2,-,N/A,,Clear,260,2013-11-29 16:30:00
6:00 PM,33.8,30.2,87,30.12,-9999.0,SW,4.6,-,N/A,,Clear,220,2013-11-29 17:00:00
6:30 PM,33.8,30.2,87,30.12,-9999.0,SW,6.9,-,N/A,,Clear,220,2013-11-29 17:30:00
7:00 PM,33.8,32.0,93,30.09,-9999.0,Variable,3.5,-,N/A,,Clear,0,2013-11-29 18:00:00
7:30 PM,33.8,32.0,93,30.09,-9999.0,Variable,3.5,-,N/A,,Clear,0,2013-11-29 18:30:00
8:00 PM,35.6,32.0,87,30.09,-9999.0,WSW,5.8,-,N/A,,Clear,240,2013-11-29 19:00:00
8:30 PM,33.8,30.2,87,30.09,-9999.0,ESE,4.6,-,N/A,,Clear,120,2013-11-29 19:30:00
9:00 PM,33.8,32.0,93,30.09,-9999.0,Variable,2.3,-,N/A,,Clear,0,2013-11-29 20:00:00
9:30 PM,35.6,33.8,93,30.09,-9999.0,Variable,2.3,-,N/A,,Clear,0,2013-11-29 20:30:00
10:00 PM,35.6,33.8,93,30.06,6.2,Variable,3.5,-,N/A,,Mostly Cloudy,0,2013-11-29 21:00:00
10:30 PM,33.8,32.0,93,30.06,6.2,Variable,3.5,-,N/A,,Mostly Cloudy,0,2013-11-29 21:30:00
11:00 PM,33.8,32.0,93,30.06,-9999.0,Variable,3.5,-,N/A,,Clear,0,2013-11-29 22:00:00
11:30 PM,30.2,30.2,100,30.06,-9999.0,Variable,3.5,-,N/A,,Clear,0,2013-11-29 22:30:00